Powrót do katalogu

KUIPER-00149

AktywnyŁącznośćLEO
NORAD 65968·PAYLOAD·🇺🇸 United States

Wystrzelony Oct 14, 2025 z Cape Canaveral Space Force Station

Loading…

Następne Przeloty (najbliższe 24 godziny)

TLE

ŚwieżeSource: CelesTrak SupGP

Epoka: Sep 14, 2026, 21:51 UTC

1 65968C 25228X   26257.91054398  .00001497  00000+0  19592-3 0  2570
2 65968  51.8998 221.3840 0000817  64.8260 327.7216 14.79932042    18

Śledź KUIPER-00149 w czasie rzeczywistym z AllMySat

Download on the App Store